Showing default

METEOSAT 11 (MSG 4), 40732

Orbit data source: Space-Track

METEOSAT 11 (MSG 4), 40732 is a payload satellite owned by EUMETSAT (DE) in GEO that was launched on Wed, 15 Jul 2015 UTC via an ARIANE 5ECA launch vehicle from the French Guiana (FRGUI). Payload-class satellites include a variety of spacecraft equipped with specific instruments for various scientific and technological missions. These include communications satellites like Starlink; space stations such as the ISS; scientific satellites like the Hubble; Earth observation satellites from companies like Planet Labs, Umbra, and HawkEye 360; GPS; miniature CubeSats for education and research; and military/defense satellites.

Not visible in the next 10 days
Identifier
40732, 2015-034A
Orbit
GEO
Country
Flag of DEDE / EUME
Related business
Manufacturer
Thales Alenia
Mission
Operational Civil Weather
Bus & Motor
MSG, S400 X2
Mass
2,043 kg wet, 1,000 kg dry
Launch date (UTC)
2015-07-15 (11 years ago)
Launch vehicle
ARIANE 5ECA
Launch site
French Guiana (FRGUI)
Object type
Payload
Rocket body
Debris
Shape & HBR
Cyl, 2.0 m
Radar Cross Section
9.802 m², Large (>1 m²)

Expand to show TLE details & history
Last TLE update: 18 hours ago

TLE from 18 hours ago
0 METEOSAT 11 (MSG 4)
1 40732U 15034A   26106.10433821  .00000074  00000-0  00000-0 0  9997
2 40732   3.0467  71.4330 0001738 293.5562 246.3743  1.00279614  6596
Epoch: 2026-04-16T02:30Z
TLE epoch observation values (Epoch: 2026-04-16T02:30:14.821Z)
Latitude
0.01457°
Longitude
9.51994°
Altitude
35,786.865 km
Speed
3.075 km/s
True Right ascension
16h 45m 21s
True Declination
0° 00' 52"
Sunlit
Object was in daylight at epoch
Visualization orbit readout
Latitude
Unknown
Longitude
Unknown
Altitude
Unknown
Speed
Unknown
Apparent Right ascension
Unknown
Apparent Declination
Unknown
Sunlit
N/A
Visualization observer readout
Local Sidereal Time
03:03:51
Azimuth
Unknown
Elevation
Unknown
Doppler factor
Unknown
Orbital elements
Apogee altitude
35,792.794 km
Perigee altitude
35,778.138 km
Semi-major axis
42,163.603 km
Eccentricity
0.00017
Inclination
3.0467°
RAAN
71.433°
Arg. of periapsis
293.5562°
True anomaly
246.35605°
Mean anomaly
246.3743°
Eccentric anomaly
246.36518°
Mean motion
0.25069 °/min
Orbital period
1,436.04 mins
BSTAR
0
Loading maneuver chart data...
Computing Atmospheric mass density...
Loading historical data...
Loading historical data...
Loading historical data...
Loading historical data...
Loading historical data...
Loading historical data...
Loading historical data...

Documentation

Showing up to 5 results
|